sat.trackr.live / text

‹ back to catalog

STARLINK-1661

NORAD 46355 · 2020-062AG

PAYLOAD ACTIVE UNKNOWN

§ Identity

Operator
Country
US
Launch date
2020-09-03
Launch site
AFETR
Launch vehicle
Mass (kg)
RCS (m²)

Purposes: comms

External: N2YO · Heavens-Above · Gunter

§ Orbital elements

Epoch: 2026-09-20T03:59:56.889888Z

Period
93.01 min
Inclination
53.1507°
Eccentricity
0.0003789
Mean motion
15.48274466 rev/d
Perigee alt
419.2 km
Apogee alt
424.4 km
Semi-major
6,799.9 km
B*
9.7103e-4
RAAN
175.4195°
Arg perigee
122.6998°
Mean anomaly
237.4377°
Rev number
33,434

§ Raw data

STARLINK-16611 46355U 20062AG  26263.16663067  .00051996  00000+0  97103-3 0  99992 46355  53.1507 175.4195 0003789 122.6998 237.4377 15.48274466334349

JSON: /api/v1/satellites/46355 · /tle

For live sub-satellite position, see the globe view (requires WebGL).

§ Visibility from observer

Set your observer location to see the next 7 days of passes ≥ 10°. The values pass through the URL so the page stays shareable.

No JS? Fill the form by hand. The geolocation button needs JavaScript.